Location: Nairn
(57.5833°N, 3.8667°W)
Time: 16:47:24
(UTC+00:00)

Okean 1 Rocket - Pass Details

Date: 07 August 2020
Orbit: 607 x 634 km, 82.5° (Epoch: 22 September)

Event Time Altitude Azimuth Distance (km) Brightness Sun altitude
Exits shadow 02:38:15 15° 201° (SSW) 1,669 4.6 -10.8°
Maximum altitude 02:41:51 72° 285° (WNW) 649 3.1 -10.6°
Drops below altitude 10° 02:46:14 10° 10° (N) 1,985 6.8 -10.2°
Sets 02:48:29 0° 13° (NNE) 2,899 7.9 -10.1°
